Regional Weather Roundup
Issued by NWS

Home | Current Version | Previous Version | Text Only | Print | Product List | Glossary On
Versions: 1 2 3 4 5 6 7 8 9 10 11 12 13 14 15 16 17 18 19 20 21 22 23 24 25 26 27 28 29 30 31 32 33 34 35 36 37 38 39 40 41 42 43 44 45 46 47 48 49 50
000
ASUS43 KDTX 222010
RWRMI
MICHIGAN HOURLY REGIONAL WEATHER ROUNDUP
NATIONAL WEATHER SERVICE DETROIT/PONTIAC MI
400 PM EDT TUE MAY 22 2018

NOTE: "FAIR" INDICATES FEW OR NO CLOUDS BELOW 12,000 FEET WITH NO
SIGNIFICANT WEATHER AND/OR OBSTRUCTION TO VISIBILITY.

MIZ047>049-052>055-059>063-066>070-074>076-081>083-222100-
SOUTHEAST LOWER MICHIGAN

CITY           SKY/WX    TMP DP  RH WIND       PRES   REMARKS
ADRIAN         FAIR      74  61  63 NW10G22   29.96F
ALMA           CLOUDY    60  56  88 NW5       30.02S
ANN ARBOR      LGT RAIN  70  63  78 W10G24    29.95F
BAD AXE        CLOUDY    58  53  83 N10       29.99F
CARO           CLOUDY    58  53  83 N8        29.99F
DETROIT CITY   CLOUDY    69  60  73 E7        29.94S
DETROIT        PTSUNNY   76  63  64 NW12      29.93F
FLINT          CLOUDY    60  56  86 NW8       29.99F
GROSSE ILE     LGT RAIN  68  64  87 S3        29.93S
HILLSDALE      PTSUNNY   72  59  64 NW16G24   29.98S
HOWELL         CLOUDY    62  59  90 NW9       29.99S

CITY           SKY/WX    TMP DP  RH WIND       PRES   REMARKS
JACKSON        CLOUDY    68  61  78 NW10      29.99R
LAMBERTVILLE   PTSUNNY   79  61  53 W13G23    29.93F
LANSING        CLOUDY    60  58  92 W7        30.01F
LAPEER         CLOUDY    60  55  82 N8        29.99S
MASON          CLOUDY    62  58  86 NW8       30.00S
MONROE         PTSUNNY   76  66  70 W13G20    29.92F
MT. CLEMENS    CLOUDY    68  65  91 N15       29.94F
PONTIAC        CLOUDY    65  59  81 NW14      29.96S
PORT HOPE        N/A     57  48  72 NW15      29.97F
PORT HURON     CLOUDY    61  54  77 NE8       29.97R
TRI CITIES     CLOUDY    61  54  77 N9        30.01S
MIDLAND        CLOUDY    61  55  81 NW5       30.00F
TROY           FAIR      72  61  69 NW10G17   29.97F
SAGINAW HB     CLOUDY    59  54  82 N5        30.00S
$$
MIZ043>046-050>051-056>058-064>065-071>073-077>080-222100-
SOUTHWEST LOWER MICHIGAN

CITY           SKY/WX    TMP DP  RH WIND       PRES   REMARKS
BATTLE CREEK   CLOUDY    66  58  75 NW10      30.02S
BENTON HARBOR  CLOUDY    54  51  90 VRB7      30.07S
BIG RAPIDS     CLOUDY    60  53  79 N5        30.02F
COLDWATER      CLOUDY    69  58  67 NW10      30.00S
FREMONT        CLOUDY    64  57  79 N8        30.02F
HOLLAND        FAIR      60  53  77 W10       30.04F
GRAND RAPIDS   CLOUDY    62  57  83 W9        30.02S
IONIA          CLOUDY    62  57  85 W8        30.01S
KALAMAZOO      CLOUDY    68  59  73 W12       30.02F
LUDINGTON      FAIR      60  50  69 NW8       30.03F
MARSHALL       CLOUDY    66  60  82 W10       30.00S
MOUNT PLEASANT CLOUDY    62  55  78 NW5       30.01S
MUSKEGON       PTSUNNY   59  49  69 W9        30.04S
SOUTH HAVEN    CLOUDY    56  51  84 NW6       30.05F
$$
MIZ016>042-222100-
NORTHERN LOWER MICHIGAN

CITY           SKY/WX    TMP DP  RH WIND       PRES   REMARKS
ALPENA         FAIR      70  50  49 VRB5      29.99S
BEAVER ISLAND  FAIR      65  46  50 W8        30.02F
BELLAIRE       FAIR      67  45  45 NW6       30.00S
CADILLAC       FAIR      69  52  54 NW6       30.00S
CHARLEVOIX     FAIR      58  45  61 W10       30.05S
FRANKFORT      FAIR      63  51  63 NW8       30.04S
GAYLORD        FAIR      69  50  50 MISG      29.99F
GRAYLING       FAIR      73  50  43 NE8       29.97F
HARBOR SPRINGS FAIR      52  44  74 SW8       30.01S
HOUGHTON LAKE  FAIR      68  53  58 W10       29.99F
MANISTEE       FAIR      60  50  69 NW9       30.04S
OSCODA         PTSUNNY   65  47  51 NE8       29.98S
PELLSTON       FAIR      73  47  39 NW13      30.00S
ROGERS CITY    FAIR      59  47  64 N6        30.01S
TRAVERSE CITY  FAIR      64  47  53 NE9       30.01R
$$
MIZ007>008-015-222100-
EASTERN UPPER MICHIGAN

CITY           SKY/WX    TMP DP  RH WIND       PRES   REMARKS
KINROSS        CLOUDY    72  46  39 SW8       29.97F
MACKINAC ISLAN FAIR      67  44  42 S5        30.00S
NEWBERRY       FAIR      74  44  34 CALM      29.97F
S. S. MARIE    FAIR      74  47  38 W10       29.96F
MUNISING         N/A     54  32  43 N7        30.00F
$$
MIZ004>006-011>014-085-222100-
CENTRAL UPPER MICHIGAN

CITY           SKY/WX    TMP DP  RH WIND       PRES   REMARKS
MANISTIQUE     FAIR      59  50  72 S10       30.01S
ESCANABA       FAIR      64  51  62 S13       30.00F
MENOMINEE      FAIR      71  53  52 SE9       30.02F
SAWYER-GWINN   SUNNY     75  32  20 NE5       29.99F
$$
MIZ001>003-009>011-084-222100-
WESTERN UPPER MICHIGAN

CITY           SKY/WX    TMP DP  RH WIND       PRES   REMARKS
IRON MOUNTAIN  FAIR      79  40  24 N8        29.98F
HOUGHTON       FAIR      74  38  27 W15       30.00F
COPPER HARBOR    N/A     55  41  59 N20       29.98F
IRONWOOD       FAIR      74  41  30 W9        30.03F
$$

ABBREVIATIONS USED IN REMARKS
   TC - TEMPERATURE IN CELSIUS
  WCI - WIND CHILL INDEX
   HX - HEAT INDEX
  VSB - VISIBILITY




USA.gov is the U.S. government's official web portal to all federal, state and local government web resources and services.